Overview Statistics Trail Chart Weather Telemetry Raw packets
 

This is the latest recevied weather packets stored in our database for station/object K7OWW-2. If no packets are shown the sender has not sent any weather packets the latest 10 day(s).

<< 8 9 10 11 12 13 14 >>
Time Temp. Humidity Pressure Rain* Wind** Luminosity Snow
1788390528 9.44° C 96% 1010 hPa 2.54 mm - - -
1788389928 8.89° C 96% 1010.2 hPa 2.79 mm - - -
1788389328 8.89° C 95% 1010.2 hPa 2.79 mm - - -
1788389030 8.89° C 96% 1010.3 hPa 2.79 mm - - -
1788388728 8.89° C 95% 1010.2 hPa 2.54 mm - - -
1788388128 8.89° C 95% 1010.1 hPa 2.54 mm - - -
1788387528 8.89° C 95% 1010 hPa 2.54 mm - - -
1788387230 8.89° C 94% 1009.9 hPa 2.29 mm - - -
1788386928 8.89° C 95% 1009.7 hPa 2.03 mm - - -
1788386328 9.44° C 95% 1009.7 hPa 1.78 mm - - -
1788385728 9.44° C 95% 1009.5 hPa 1.52 mm - - -
1788385128 9.44° C 95% 1009.7 hPa 1.52 mm - - -
1788384528 9.44° C 95% 1009.6 hPa 1.27 mm - - -
1788383928 9.44° C 95% 1009.5 hPa 1.27 mm - - -
1788383630 9.44° C 95% 1009.4 hPa 1.52 mm - - -
1788383328 9.44° C 95% 1009.3 hPa 1.52 mm - - -
1788382728 8.89° C 95% 1009.3 hPa 1.27 mm - - -
1788382128 8.89° C 95% 1009.3 hPa 1.27 mm - - -
1788381528 8.89° C 95% 1009.2 hPa 1.52 mm - - -
1788380928 8.89° C 95% 1009.2 hPa 1.52 mm - - -
1788380328 8.33° C 95% 1009.1 hPa 1.52 mm - - -
1788380030 8.33° C 95% 1009 hPa 1.27 mm - - -
1788379728 8.33° C 95% 1008.9 hPa 1.52 mm - - -
1788379128 8.33° C 94% 1009 hPa 1.78 mm - - -
1788378528 8.33° C 94% 1009.1 hPa 2.03 mm - - -

* Rain latest hour (hover to see other rain measurements)
** Current wind speed in m/s (hover to see current wind gust speed)